#timestamp,LO_Frequency,Hit,StdDev 
1506625215.6,286046997.6,N
1506625235.4,286046997.4,N
1506625255.2,286046997.0,N
1506625275.1,286046995.3,N
1506625276.0,286046995.3,N
1506625295.8,286046995.7,N
1506625315.6,286046994.1,N
1506625335.5,286046996.0,N
1506625355.3,286046997.5,N
1506625375.1,286046995.5,N
1506625395.9,286046997.1,N
1506625415.7,286046996.0,N
1506625435.5,286046990.4,Y
1506625455.4,286046990.8,P
1506625475.2,286046988.9,P
1506625495.0,286046990.3,N
1506625495.9,286046990.3,N
1506625515.8,286046990.3,Y
1506625535.6,286047002.4,P
1506625555.4,286047004.3,N
1506625575.3,286046999.9,N
1506625595.1,286047000.5,N
1506625596.0,286047000.5,N
1506625615.8,286046999.7,N
1506625635.7,286047001.2,N
1506625655.5,286047002.6,N
1506625675.3,286047002.1,N
1506625695.2,286047001.7,N
1506625715.9,286047000.3,N
1506625735.7,286047000.2,N
1506625755.5,286047002.5,N
1506625775.4,286047004.0,N
1506625795.2,286047003.2,N
1506625815.0,286047006.8,N
1506625815.9,286047006.8,N
1506625835.8,286047010.0,Y
1506625855.6,286047011.8,P
1506625875.4,286047014.8,N
1506625895.3,286047018.4,P
1506625915.1,286047020.1,Y
1506625935.8,286047012.0,P
1506625955.7,286047013.2,P
1506625975.5,286047016.5,P
1506625995.3,286047018.6,Y
1506626015.2,286047005.8,P
1506626035.0,286047006.6,N
1506626035.9,286047006.6,N
1506626055.7,286047009.1,N
1506626075.6,286047008.4,Y
1506626095.4,286046998.4,P
1506626115.2,286046999.5,N
1506626135.1,286046996.4,N
1506626136.0,286046996.4,N
1506626155.8,286046992.6,N
1506626175.6,286046991.7,N
1506626195.5,286046997.4,N
1506626215.3,286046997.9,N
1506626235.1,286046996.9,N
1506626255.9,286046996.6,N
1506626275.7,286046997.4,N
1506626295.5,286047000.5,N
1506626315.4,286046999.7,N
1506626335.2,286046999.9,N
1506626355.0,286047001.2,N
1506626355.9,286047001.2,N
1506626375.8,286046997.1,N
1506626395.6,286046999.3,N
1506626415.4,286047000.5,N
1506626435.2,286047000.5,N
1506626455.1,286046996.8,N
1506626456.0,286046996.8,N
1506626475.8,286047000.3,N
1506626495.6,286047000.1,N
1506626515.5,286046999.9,N
1506626535.3,286047000.6,N
1506626555.1,286046998.1,N
1506626575.9,286047001.4,N
1506626595.7,286047003.6,N
1506626615.5,286047000.1,N
1506626635.4,286046996.5,N
1506626655.2,286046995.8,N
1506626675.0,286046996.1,N
1506626675.9,286046996.1,N
1506626695.8,286046994.9,N
1506626715.6,286046997.9,N
1506626735.4,286046997.7,N
1506626755.2,286046994.0,N
1506626775.1,286046992.6,Y
1506626776.0,286046992.6,P
1506626795.8,286046991.7,N
1506626815.6,286046990.4,P
1506626835.5,286046988.9,Y
1506626855.3,286046997.8,P
1506626875.1,286046995.5,N
1506626895.9,286046993.5,P
1506626915.7,286046993.0,Y
1506626935.6,286046997.2,P
1506626955.4,286046995.7,P
1506626975.2,286046992.1,P
1506626995.0,286046991.8,Y
1506626996.0,286046991.8,P
1506627015.8,286046999.2,N
1506627035.6,286046999.3,N
1506627055.4,286046997.7,N
1506627075.3,286046993.4,N
1506627095.1,286046994.8,N
1506627115.8,286046994.6,N
1506627135.7,286046994.3,N
1506627155.5,286046993.9,N
1506627175.3,286046994.8,N
1506627195.2,286046994.8,N
1506627215.9,286046993.3,Y
1506627235.7,286046998.8,P
1506627255.6,286046996.8,N
1506627275.4,286046995.5,P
1506627295.2,286046991.8,Y
1506627315.1,286046997.5,P
1506627316.0,286046997.5,P
1506627335.8,286046995.7,P
1506627355.6,286046999.5,N
1506627375.5,286046998.5,N
1506627395.3,286046998.1,N
1506627415.1,286046993.4,Y
1506627435.9,286046995.3,P
1506627455.7,286046997.8,N
1506627475.5,286046995.1,P
1506627495.4,286046997.4,N
1506627515.2,286046995.0,Y
1506627535.0,286046999.6,P
1506627535.9,286046999.6,N
1506627555.8,286046996.6,N
1506627575.6,286047001.1,N
1506627595.4,286046999.9,N
1506627615.3,286047000.1,N
1506627635.1,286047000.3,N
1506627636.0,286047000.3,N
1506627655.8,286047002.6,N
1506627675.6,286047000.3,N
1506627695.5,286046998.3,N
1506627715.3,286046995.3,N
1506627735.1,286046999.8,N
1506627755.9,286047005.1,N
1506627775.7,286047010.6,Y
1506627795.5,286047015.1,P
1506627815.4,286047020.4,N
1506627835.2,286047023.2,N
1506627855.0,286047023.6,N
1506627855.9,286047023.6,N
1506627875.8,286047023.8,N
1506627895.6,286047026.4,Y
1506627915.4,286047007.9,P
1506627935.3,286047009.8,N
1506627955.1,286047015.4,P
1506627975.8,286047009.5,N
1506627995.7,286047007.8,N
1506628015.5,286047010.8,N
1506628035.3,286047011.7,Y
1506628055.2,286047000.2,P
1506628075.9,286046998.6,N
1506628095.7,286046996.5,N
1506628115.6,286046996.7,N
1506628135.4,286046998.4,N
1506628155.2,286047001.3,N
1506628175.1,286047001.8,N
1506628176.0,286047001.8,N
1506628195.8,286047002.4,N
1506628215.6,286047003.5,N
1506628235.4,286047001.5,N
1506628255.3,286047003.2,N
1506628275.1,286047000.5,N
1506628295.8,286047001.9,N
1506628315.7,286047004.4,N
1506628335.5,286047004.8,N
1506628355.3,286047004.3,N
1506628375.2,286047002.7,N
1506628395.9,286047010.5,Y
1506628415.7,286047004.5,P
1506628435.6,286047004.4,P
1506628455.4,286047000.7,N
1506628475.2,286047000.9,N
1506628495.1,286046996.9,N
1506628496.0,286046996.9,N
1506628515.8,286047003.2,N
1506628535.6,286047003.2,N
1506628555.5,286047001.6,N
1506628575.3,286047000.9,N
1506628595.1,286046997.6,N
1506628615.8,286046995.4,N
1506628635.7,286046993.6,N
1506628655.5,286046994.4,N
1506628675.3,286046992.1,N
1506628695.2,286046992.7,N
1506628715.9,286046992.0,N
1506628735.7,286046994.6,N
1506628755.6,286046996.4,N
1506628775.4,286046995.9,N
1506628795.2,286046994.4,N
